{"data":{"norad_id":61524,"intl_designator":"2024-183R","name":"STARLINK-32296","alt_names":[],"object_type":"PAYLOAD","status":"ACTIVE","operator":null,"country":"US","launch_date":"2024-10-15","launch_site_code":"AFETR","launch_vehicle":null,"mission":null,"orbit_class":"UNKNOWN","rcs_meters":null,"size_class":null,"mass_kg":null,"dimensions":null,"purposes":["comms"],"wikipedia_slug":null,"has_3d_model":false,"image_url":null,"decayed_at":null,"tle_current":{"epoch":"2026-05-24T17:53:39.819264Z","epoch_age_seconds":100618,"freshness":"FRESH","line1":"1 61524U 24183R   26144.74559976  .00000127  00000+0  15844-4 0  9990","line2":"2 61524  53.1603 148.6917 0001283  80.7392 279.3754 15.31703446 91301","mean_motion":15.31703446,"eccentricity":0.0001283,"inclination_deg":53.1603,"raan_deg":148.6917,"arg_perigee_deg":80.7392,"mean_anomaly_deg":279.3754,"bstar":1.5844e-5,"rev_number":9130,"period_min":94.01297645184,"perigee_km":469.85101329767,"apogee_km":471.60843249877,"semimajor_km":6848.8667228982,"source":"CELESTRAK","updated_at":"2026-05-25T13:38:19.394940Z"}}}